"Pseudo-MPEC" for A11Gjjf

Created 2026 Sep 4 14:35:03 UT using Find_Orb

Click here for an explanation of pseudo-MPECs

 
 Astrometry: 
     A11Gjjf*0C2026 09 04.41043822 09 51.079-18 42 23.51   ~94EK 17.83oVNEOCPT05
     A11Gjjf 0C2026 09 04.44586322 12 02.026-18 41 24.18   ~94EK 19.11oVNEOCPT05
     A11Gjjf 0C2026 09 04.44951622 12 15.223-18 41 16.91   ~94EKx17.43oVNEOCPT05
     A11Gjjf 0C2026 09 04.45811022 12 47.652-18 40 58.73   ~94EK 18.90oVNEOCPT05

Station data:
(T05) ATLAS-HKO, Haleakala  (N20.707551 W156.257010)  US/Hawaii.  Observers
   L. Denneau, R. Siverd, J. Tonry, H. Weiland. Measurers L. Denneau, N.
   Erasmus, A. Fitzsimmons, J. Robinson, R. Siverd, J. Tonry, H. Weiland.
   0.5-m f/2.0 Schmidt + CCD.

Orbital elements:  A11Gjjf
   Perihelion 2026 Sep 11.664208 +/- 11.7 TT = 15:56:27.6 (JD 2461295.164208)
Epoch 2026 Sep  4.0 TT = JDT 2461287.5   Earth MOID: 0.0080   Ma: 0.0539
M 355.737116713 +/- 6               (J2000 ecliptic)             AutoNEOCP
n   0.556206591 +/- 0.434           Peri.  189.539507 +/- 15
a   1.464351359 +/- 0.851           Node   159.862008 +/- 1.0
e   0.30727154 +/- 0.372            Incl.    2.054103 +/- 1.1
P   1.772/647.229d         H 28.44  G  0.15   U 12.2
q 1.014397860 +/- 0.0189    Q 1.914304859 +/- 1.71
3 of 4 observations 2026 Sept. 4 (68.6 min); mean residual 0".01
Residuals in arcseconds: 
260904 T05  .00   .00     260904 T05( 5.6-  .06-)   
260904 T05  .02-  .00     260904 T05  .01-  .00     

Ephemerides (geocentric):
Date (UTC) HH   RA             Dec           delta  r     elong  mag " sig PA
---- --------  ------------   ------------  ------ ------ -----  --- --------
2026 09 04 15  22 24 48.474   -18 24 23.29  .00835 1.0166 166.9 18.8  545  58
2026 09 04 16  22 27 45.972   -18 22 27.04  .00832 1.0166 167.2 18.8  570  60
2026 09 04 17  22 30 44.581   -18 20 19.62  .00829 1.0165 167.6 18.8  579  62
2026 09 04 18  22 33 44.249   -18 18 00.86  .00827 1.0165 167.9 18.8  571  63
2026 09 04 19  22 36 44.927   -18 15 30.65  .00824 1.0165 168.1 18.8  545  62
2026 09 04 20  22 39 46.558   -18 12 48.86  .00822 1.0165 168.4 18.8  500  61
2026 09 04 21  22 42 49.088   -18 09 55.38  .00820 1.0164 168.6 18.7  437  59
2026 09 04 22  22 45 52.459   -18 06 50.14  .00818 1.0164 168.8 18.7  356  54
2026 09 04 23  22 48 56.611   -18 03 33.05  .00816 1.0164 168.9 18.7  262  44
2026 09 05 00  22 52 01.483   -18 00 04.06  .00814 1.0163 169.0 18.7  174  18
2026 09 05 01  22 55 07.013   -17 56 23.15  .00812 1.0163 169.1 18.7  171 145
2026 09 05 02  22 58 13.137   -17 52 30.27  .00811 1.0163 169.1 18.7  293 112
2026 09 05 03  23 01 19.790   -17 48 25.44  .00809 1.0163 169.0 18.7  475  99
2026 09 05 04  23 04 26.905   -17 44 08.67  .00808 1.0163 169.0 18.7  690  93
2026 09 05 05  23 07 34.414   -17 39 40.00  .00807 1.0162 168.8 18.7  932  90
2026 09 05 06  23 10 42.251   -17 34 59.48  .00806 1.0162 168.7 18.7 1200  88
2026 09 05 07  23 13 50.345   -17 30 07.19  .00805 1.0162 168.5 18.7 1493  86
2026 09 05 08  23 16 58.627   -17 25 03.21  .00804 1.0162 168.2 18.7 1810  85
2026 09 05 09  23 20 07.028   -17 19 47.67  .00804 1.0161 167.9 18.7 2152  84
2026 09 05 10  23 23 15.477   -17 14 20.69  .00803 1.0161 167.6 18.7 2518  84
2026 09 05 11  23 26 23.904   -17 08 42.41  .00803 1.0161 167.3 18.7 2909  83
2026 09 05 12  23 29 32.238   -17 02 53.02  .00803 1.0161 166.9 18.8 3323  82
2026 09 05 13  23 32 40.410   -16 56 52.69  .00803 1.0160 166.5 18.8 3762  82
2026 09 05 14  23 35 48.350   -16 50 41.63  .00803 1.0160 166.0 18.8 4223  82
2026 09 05 15  23 38 55.989   -16 44 20.05  .00803 1.0160 165.6 18.8 4708  81
2026 09 05 16  23 42 03.258   -16 37 48.20  .00803 1.0160 165.1 18.8 5215  81
2026 09 05 17  23 45 10.089   -16 31 06.32  .00804 1.0159 164.6 18.8 5745  81
2026 09 05 18  23 48 16.417   -16 24 14.68  .00805 1.0159 164.1 18.9 6296  80
2026 09 05 19  23 51 22.174   -16 17 13.55  .00805 1.0159 163.6 18.9 6869  80
2026 09 05 20  23 54 27.298   -16 10 03.24  .00806 1.0159 163.1 18.9 7461  80
2026 09 05 21  23 57 31.724   -16 02 44.04  .00807 1.0159 162.5 18.9 8074  80
2026 09 05 22  00 00 35.391   -15 55 16.27  .00809 1.0158 162.0 18.9 8705  79
2026 09 05 23  00 03 38.240   -15 47 40.26  .00810 1.0158 161.4 19.0 9355  79
2026 09 06 00  00 06 40.212   -15 39 56.34  .00812 1.0158 160.8 19.0 167'  79
2026 09 06 01  00 09 41.249   -15 32 04.85  .00813 1.0158 160.2 19.0 178'  79
2026 09 06 02  00 12 41.299   -15 24 06.15  .00815 1.0157 159.7 19.0 190'  78
2026 09 06 03  00 15 40.307   -15 16 00.58  .00817 1.0157 159.1 19.1 202'  78
2026 09 06 04  00 18 38.224   -15 07 48.51  .00819 1.0157 158.5 19.1 214'  78
2026 09 06 05  00 21 35.000   -14 59 30.30  .00821 1.0157 157.9 19.1 226'  78
2026 09 06 06  00 24 30.589   -14 51 06.32  .00823 1.0157 157.3 19.1 239'  78
2026 09 06 07  00 27 24.947   -14 42 36.93  .00826 1.0156 156.7 19.2 252'  77
2026 09 06 08  00 30 18.031   -14 34 02.51  .00828 1.0156 156.1 19.2 264'  77
2026 09 06 09  00 33 09.801   -14 25 23.42  .00831 1.0156 155.5 19.2 277'  77
2026 09 06 10  00 36 00.219   -14 16 40.03  .00834 1.0156 155.0 19.2 290'  77
2026 09 06 11  00 38 49.251   -14 07 52.70  .00836 1.0156 154.4 19.3 304'  77
2026 09 06 12  00 41 36.863   -13 59 01.81  .00839 1.0155 153.8 19.3 317'  77
2026 09 06 13  00 44 23.023   -13 50 07.69  .00843 1.0155 153.2 19.3 330'  76
2026 09 06 14  00 47 07.703   -13 41 10.72  .00846 1.0155 152.6 19.3 344'  76